Regional Weather Roundup
Issued by NWS

Home | Current Version | Previous Version | Text Only | Print | Product List | Glossary Off
Versions: 1 2 3 4 5 6 7 8 9 10 11 12 13 14 15 16 17 18 19 20 21 22 23 24 25 26 27 28

000
ASUS45 KTFX 282010
RWRMT
MONTANA REGIONAL WEATHER ROUNDUP
NATIONAL WEATHER SERVICE GREAT FALLS MT
200 PM MDT SUN AUG 28 2016

NOTE: "FAIR" INDICATES FEW OR NO CLOUDS BELOW 12000 FEET WITH NO
SIGNIFICANT WEATHER AND/OR OBSTRUCTIONS TO VISIBILITY.

MTZ001>007-043-282100-
WEST OF THE DIVIDE

CITY           SKY/WX    TMP DP  RH WIND       PRES   REMARKS
KALISPELL      SUNNY     78  39  24 S8G17     30.04R
MISSOULA       SUNNY     81  34  18 NE7       30.07S
BUTTE          MOSUNNY   75  37  25 W14       30.15S
MULLAN PASS    MOSUNNY   58  38  47 VRB6      30.23R
DEER LODGE       N/A     77  32  19 E6G33     30.13S
EUREKA           N/A     77  39  25 SE8       30.03S
HAMILTON         N/A     79  28  15 W3        30.09R
LIBBY            N/A     77  37  24 S7        30.05R
RONAN            N/A     76  39  26 SW3       30.12S
$$

MTZ008-052>055-282100-
SOUTHWEST MONTANA

CITY           SKY/WX    TMP DP  RH WIND       PRES   REMARKS
BOZEMAN        SUNNY     80  36  20 NW5       30.08S
DILLON         MOSUNNY   78  36  21 SW18G26   30.11S
W YELLOWSTONE  SUNNY     75  27  16 SW16G26   30.26S
THREE FORKS      N/A     84  84 100 S6        30.05S HX 103
TWIN BRIDGES     N/A     81  35  19 CALM      30.08F
$$

MTZ009-010-012-014-046-048-049-054-282100-
EAST SLOPES AND CENTRAL MONTANA

CITY           SKY/WX    TMP DP  RH WIND       PRES   REMARKS
CUT BANK       SUNNY     65  45  48 NW13      30.12R
GREAT FALLS    CLOUDY    77  44  30 E9        30.05R
MALMSTROM AFB  SUNNY     76  47  35 MISG      30.05R
HELENA         CLOUDY    81  34  18 W13       30.05R
$$

MTZ011-013-016-021-045-047-050-051-282100-
NORTH CENTRAL MONTANA

CITY           SKY/WX    TMP DP  RH WIND       PRES   REMARKS
HAVRE          SUNNY     76  49  38 N12       30.04R
LEWISTOWN      CLOUDY    80  44  27 VRB6      30.07R
CHINOOK          N/A     75  48  38 NW12      30.03R
$$

MTZ017>020-022>027-061-062-282100-
NORTHEAST MONTANA

CITY           SKY/WX    TMP DP  RH WIND       PRES   REMARKS
GLASGOW        SUNNY     83  49  30 NW12G25   29.96R
JORDAN           N/A     84  41  21 N8G24     29.96R
SIDNEY         SUNNY     87  47  24 N13       29.91R
WOLF POINT     MOSUNNY   85  48  27 CALM      29.93S
POPLAR           N/A     81  50  34 N9        29.94R
SCOBEY           N/A     78  50  37 N8        29.97R
$$

MTZ028>42-056>058-282100-
SOUTHCENTRAL AND SOUTHEAST MONTANA

CITY           SKY/WX    TMP DP  RH WIND       PRES   REMARKS
BAKER          SUNNY     90  39  16 N12       29.97S
BILLINGS       MOSUNNY   85  36  17 SW5       30.02S
LIVINGSTON     SUNNY     87  34  15 W18       30.06S
MILES CITY     SUNNY     91  36  14 N10       29.94S
EKALAKA          N/A     87  40  19 NW1       29.99R
FORSYTH          N/A     88  39  18 SW5       29.96S
LAUREL           N/A     84  37  18 E3        30.01F
ROUNDUP          N/A     88  38  17 S12       29.93R
$$

REGIONAL REPORTS...DAKOTAS

CITY           SKY/WX    TMP DP  RH WIND       PRES   REMARKS
WILLISTON      SUNNY     85  46  25 N13       29.91R
MINOT          SUNNY     91  58  32 S10       29.86R HX  90
DICKINSON      SUNNY     93  29  10 NW7G20    29.90S
CROSBY           N/A     81  50  34 N9        29.93S
WATFORD CITY     N/A     90  45  20 W12G18    29.90R
BISMARCK       SUNNY     86  66  51 SE8       29.90S
GRAND FORKS    MOSUNNY   82  66  58 SE21G29   29.94F
FARGO          SUNNY     85  67  54 S16G26    29.95F
BUFFALO SD       N/A     94  36  13 W8        29.90S
RAPID CITY     SUNNY     89  46  22 E8        29.99S
$$

REGIONAL REPORTS...WYOMING/IDAHO/WASHINGTON

CITY           SKY/WX    TMP DP  RH WIND       PRES   REMARKS
GILLETTE       SUNNY     88  28  11 NE12      30.05R
SHERIDAN       SUNNY     90  33  13 N9        30.04R
BUFFALO WY     SUNNY     88  27  11 NE6       30.10S
CODY           SUNNY     81  36  19 SW9       30.10F
YELLOWSTONE LA   N/A     70  27  20 VRB5      30.34F
IDAHO FALLS    SUNNY     84  31  14 SW15G26   30.16S
SALMON         MOSUNNY   79  37  22 NW3       30.09S
BOISE          SUNNY     84  42  22 VRB6      30.10F
SPOKANE        PTSUNNY   73  39  29 W7        30.08R
$$

REGIONAL REPORTS...ALBERTA

CITY           SKY/WX    TMP DP  RH WIND       PRES   REMARKS
EDMONTON       PTSUNNY   55  37  50 NW12G23   30.09R
CALGARY        PTSUNNY   54  41  62 NE7       30.15R
LETHBRIDGE     MOSUNNY   57  43  58 NW5       30.14S
MEDICINE HAT   PTSUNNY   61  46  59 NW10      30.11R
WATERTON GATE    N/A     57  41  54 N5          N/A
MILK RIVER       N/A     61  43  51 N14         N/A
ONEFOUR          N/A     64  46  52 NW20        N/A
$$

REGIONAL REPORTS...SASKATCHEWAN

CITY           SKY/WX    TMP DP  RH WIND       PRES   REMARKS
SWIFT CURRENT  SUNNY     66  48  52 NW18G28   30.03R
REGINA         MOSUNNY   75  52  43 NW15G23   29.94R
SASKATOON      PTSUNNY   63  46  55 W21       29.95R
CYPRESS HILLS    N/A     55  46  71 NW10G18     N/A
VAL MARIE        N/A     75  45  33 N15G22      N/A
ASSINIBOIA       N/A     54  39  58 NW17G23     N/A
$$




USA.gov is the U.S. government's official web portal to all federal, state and local government web resources and services.